Miscellaneous Local Product
Issued by NWS Hastings, NE

Home | Current Version | Previous Version | Text Only | Print | Product List | Glossary On
Versions: 1 2 3 4 5 6 7 8 9 10 11 12 13 14 15 16 17 18 19 20 21 22 23 24 25 26 27 28 29 30 31 32 33 34 35 36 37 38 39 40 41 42 43 44 45 46 47 48 49 50
000
AXUS43 KGID 241002
MISGRI

GID CWA HOURLY WEATHER ROUNDUP
NATIONAL WEATHER SERVICE HASTINGS NE
500 AM CDT SUN MAY 24 2015

NOTE: "FAIR" INDICATES FEW OR NO CLOUDS BELOW 12,000 FEET WITH NO
SIGNIFICANT WEATHER AND/OR OBSTRUCTIONS TO VISIBILITY.

...SOUTH CENTRAL NEBRASKA...

CITY           SKY/WX    TMP DP  RH WIND       PRES   REMARKS
GRAND ISLAND   LGT RAIN  59  58  96 E6        29.91R FOG
HASTINGS       CLOUDY    59  58  96 E5        29.90R FOG
KEARNEY        CLOUDY    57  55  94 E8        29.89F VSB 1
ORD            CLOUDY    57  56  96 SE3       29.91R FOG
YORK           LGT RAIN  59  59 100 E12       29.88F
AURORA         CLOUDY    59  59 100 E6        29.90R FOG
LEXINGTON      CLOUDY    59  58  97 SE3       29.90S FOG
HOLDREGE       RAIN      57  56  95 SE5       29.89F VSB 3/4
HEBRON         CLOUDY    60  58  94 CALM      29.88R FOG

...NEBRASKA PANHANDLE...

CITY           SKY/WX    TMP DP  RH WIND       PRES   REMARKS
CHADRON        CLOUDY    53  51  93 E8        29.91F
ALLIANCE       RAIN      50  50 100 SE6       29.90F FOG
SCOTTSBLUFF    CLOUDY    52  51  97 CALM      29.90F
SIDNEY         CLOUDY    50  49  96 CALM      29.90F

...WESTERN AND NORTH CENTRAL NEBRASKA...

CITY           SKY/WX    TMP DP  RH WIND       PRES   REMARKS
VALENTINE      CLOUDY    54  53  97 E9        29.94F FOG
AINSWORTH      FOG       55  55 100 E7        29.94S VSB 1/4
ONEILL         FOG       57  57  99 E9        29.94F VSB 1/4
BROKEN BOW     CLOUDY    58  57  97 E6        29.90S FOG
IMPERIAL       CLOUDY    55  53  93 S13       29.89F
NORTH PLATTE   CLOUDY    56  54  93 SE6       29.90F
MCCOOK         CLOUDY    57  55  93 SE3       29.89F

...EASTERN NEBRASKA...

CITY           SKY/WX    TMP DP  RH WIND       PRES   REMARKS
NORFOLK        LGT RAIN N/A N/A N/A E12       29.90F
SO SIOUX CITY  CLOUDY    61  58  90 E7        29.94F
TEKAMAH        CLOUDY    61  59  93 E9        29.91F
COLUMBUS       CLOUDY    57  54  88 E14       29.92F
ALBION         CLOUDY    58  56  93 E8        29.89F FOG
OMAHA EPPLEY   CLOUDY    61  59  93 E12       29.90F
OFFUTT AFB     DRIZZLE   61  59  94 NE12      29.88F
MILLARD        CLOUDY    61  59  94 E5        29.89F
LINCOLN        LGT RAIN  60  59  96 E8        29.88F FOG
NEBRASKA CITY  CLOUDY    60  60 100 E7        29.88F FOG
BEATRICE       CLOUDY    60  59  97 E7        29.87R FOG
FALLS CITY     CLOUDY    62  60  93 SE9       29.86F

...NORTHERN KANSAS...

CITY           SKY/WX    TMP DP  RH WIND       PRES   REMARKS
GOODLAND       CLOUDY    52  51  97 S7        29.89F
HILL CITY      CLOUDY    58  56  93 CALM      29.90R
NORTON         CLOUDY    55  54  94 CALM      29.89S FOG
PHILLIPSBURG   CLOUDY    61  61 100 CALM      29.89S FOG
SMITH CENTER   FOG       55  55 100 CALM      29.89F VSB 1
HAYS           CLOUDY    57  50  77 CALM      29.88S VSB 1/2
RUSSELL        CLOUDY    56  55  97 NW3       29.87F FOG
CONCORDIA      FOG       60  59  96 CALM      29.87S VSB 1/2
SALINA         CLOUDY    60  58  92 CALM      29.87F
TOPEKA         CLOUDY    65  63  93 S7        29.86F



USA.gov is the U.S. government's official web portal to all federal, state and local government web resources and services.